Theta_e
343 350 362 364 363 362 362 363 363 362 363 362 362 362 362 362 362 362 361 361 360 359 357 356 356 356 356 358 359 360 360 359 360 360 360 361 361 361 360 359 360 355 360
346 354 363 363 363 361 362 364 363 364 363 362 362 362 362 361 361 361 362 361 359 357 357 360 359 355 355 357 358 358 359 357 359 359 361 360 361 361 359 359 359 356 359
350 356 359 363 363 362 362 363 362 361 362 362 363 362 361 361 361 361 361 361 360 358 359 359 359 357 356 357 357 358 359 360 357 360 360 351 353 360 359 359 359 358 359
354 355 358 363 364 362 363 362 363 364 363 362 362 362 362 361 361 361 361 361 359 357 358 359 358 357 356 356 357 357 357 359 355 358 348 350 354 360 360 359 359 358 358
354 355 357 364 364 362 362 363 362 362 362 362 361 361 362 362 361 362 361 360 360 359 358 358 358 358 356 355 355 355 355 357 357 351 347 346 348 356 359 358 358 358 357
354 357 361 362 361 362 362 362 361 361 361 361 361 361 360 360 362 362 361 360 359 359 358 358 358 358 356 355 355 356 357 357 356 348 349 353 347 358 358 358 358 358 357
354 356 357 364 362 362 363 364 363 361 361 360 360 362 362 360 360 360 360 360 360 359 358 357 357 357 357 356 355 355 357 357 349 349 349 350 351 359 358 357 357 357 357
355 355 355 362 363 361 362 362 363 361 362 362 361 362 363 362 361 361 361 360 360 359 359 357 357 356 357 356 355 355 357 358 352 350 350 351 358 360 357 358 356 357 357
356 354 354 355 358 362 361 364 362 361 361 361 361 361 361 362 362 361 361 361 360 359 359 358 358 358 357 357 356 357 362 357 348 349 353 352 360 356 356 356 357 356 357
353 353 351 352 353 354 356 362 361 361 361 361 360 360 360 360 361 361 363 363 360 359 358 358 358 358 358 358 358 357 359 356 349 349 351 352 359 358 358 357 357 357 356
351 349 349 349 352 352 356 356 361 362 361 361 359 360 356 349 351 354 357 359 359 359 358 358 358 359 358 357 358 358 355 346 345 349 351 358 359 359 358 357 357 357 356
347 348 348 348 349 352 359 353 352 355 355 354 351 347 344 347 348 354 357 359 359 358 357 358 357 357 353 348 349 354 347 348 348 349 351 358 359 357 359 357 358 356 356
347 349 348 348 348 350 351 349 349 351 352 351 346 340 343 347 341 346 350 352 350 355 350 353 351 351 353 348 347 346 348 346 346 348 354 360 359 356 357 356 357 357 357
345 348 347 347 347 347 347 348 348 349 350 349 342 338 344 346 343 344 347 347 347 349 348 350 348 349 348 349 348 347 347 345 345 348 354 360 359 356 353 355 356 355 355
344 346 346 347 346 346 344 345 346 347 348 348 339 337 345 342 342 340 337 338 342 348 349 346 346 347 345 345 346 347 344 343 344 349 349 360 360 358 353 351 352 353 353
344 345 345 345 346 345 344 342 344 346 346 348 344 335 344 347 344 343 340 344 343 347 348 347 344 346 343 341 340 346 344 342 345 349 350 353 361 360 358 354 353 352 353
344 344 343 344 345 344 343 341 343 345 346 345 348 340 344 348 346 345 344 344 346 348 350 348 346 344 339 343 336 342 344 342 343 348 350 349 356 360 357 356 356 356 355
343 340 342 345 344 345 343 341 342 345 345 344 350 348 347 350 348 345 346 347 348 349 348 345 343 340 338 339 336 338 340 341 341 344 346 348 351 354 358 360 360 358 356
341 339 339 341 342 344 344 343 345 344 341 343 349 349 349 350 350 346 347 346 348 347 347 348 343 339 333 336 333 335 339 340 339 342 341 345 348 349 350 357 360 360 357
342 338 339 340 341 344 346 343 344 344 343 342 345 346 348 350 350 347 347 347 345 345 344 345 345 343 340 338 336 332 333 338 341 338 339 343 344 346 347 348 349 351 355
341 340 338 339 341 344 342 341 338 339 341 343 341 347 346 349 352 350 347 346 345 345 344 343 343 338 333 330 327 327 328 331 333 336 338 339 340 342 344 345 347 347 347
338 341 339 339 341 344 345 344 340 339 340 342 341 343 347 348 351 350 348 347 346 346 344 344 341 338 335 329 325 321 320 326 329 332 334 338 337 340 342 344 345 345 343
337 339 340 339 340 344 345 342 342 341 340 340 339 338 347 350 352 352 350 347 346 348 344 343 341 336 331 329 330 325 318 318 323 328 331 335 337 337 338 341 343 343 341
338 341 341 340 340 343 343 342 341 338 337 337 338 338 345 350 351 353 352 350 349 347 345 342 345 341 330 325 329 333 327 325 320 320 327 330 335 336 336 338 340 341 341
340 340 342 341 341 342 343 342 341 337 336 338 337 337 338 348 350 353 351 349 348 348 344 345 345 341 336 328 323 325 328 330 324 320 319 325 331 334 335 336 339 341 342
341 340 341 341 341 342 343 343 341 340 337 336 337 335 335 341 348 349 352 350 349 347 347 346 346 344 340 335 328 326 327 324 327 322 320 322 326 330 332 332 335 340 341
Wind_Speed
3 5 17 18 19 18 18 17 17 17 16 15 15 14 13 13 13 13 13 11 11 11 11 12 12 12 13 13 13 13 13 12 12 12 12 12 12 13 14 14 13 10 15
7 7 16 16 18 18 17 17 16 16 15 15 14 13 13 13 13 11 13 12 11 11 12 11 12 12 12 13 13 13 13 11 11 11 12 13 14 13 14 15 14 12 15
8 8 12 16 17 17 16 16 15 15 14 13 13 13 13 13 12 12 11 12 11 11 11 10 11 11 12 12 12 12 12 12 10 13 13 4 6 14 14 14 14 14 14
10 8 11 16 16 17 15 15 14 14 14 13 12 12 12 12 12 12 10 11 11 10 9 9 10 10 11 10 11 11 11 12 13 12 4 4 8 14 14 14 14 14 13
10 8 12 17 15 16 15 14 14 14 13 13 12 11 12 12 12 12 11 10 10 8 8 9 9 9 9 9 9 9 9 10 12 6 5 5 4 11 13 13 13 13 13
10 9 16 18 16 16 15 14 14 13 12 11 10 13 12 10 11 11 12 10 9 7 7 8 8 8 8 8 8 8 9 9 10 5 5 6 4 12 12 11 12 13 12
9 9 13 16 15 15 14 14 12 13 13 10 8 10 12 11 10 10 11 10 9 8 6 6 6 7 7 7 6 7 10 13 6 5 5 4 4 11 13 12 12 12 12
10 10 10 16 15 15 14 13 14 12 10 11 10 8 10 10 9 9 10 10 9 8 7 6 5 6 8 7 5 4 5 11 8 4 4 3 8 10 12 11 12 12 12
9 9 7 7 12 15 14 13 12 12 10 9 8 7 6 8 8 8 9 9 9 8 7 6 6 8 7 8 6 4 11 14 7 4 5 3 9 11 11 11 11 11 12
6 7 6 5 5 6 6 13 12 12 10 9 8 7 6 7 7 7 3 6 8 7 6 6 5 9 8 8 7 8 12 12 5 4 3 2 9 12 12 11 12 11 11
6 5 5 5 5 5 4 7 10 11 9 8 7 6 3 1 1 3 3 3 6 5 4 4 4 5 7 8 7 8 8 3 4 3 2 8 9 12 12 11 11 11 10
13 7 5 6 6 5 5 4 4 4 3 3 3 3 2 1 2 3 4 4 4 3 2 2 3 4 6 3 2 7 3 4 3 3 2 7 8 11 11 11 11 11 10
13 9 7 6 5 6 4 3 2 2 2 2 4 3 2 2 1 1 0 0 1 0 1 3 2 2 1 3 3 3 4 4 3 3 5 9 11 10 11 10 9 10 9
13 11 8 7 6 6 3 3 3 3 3 3 3 3 3 2 1 2 0 1 0 0 1 1 1 1 0 1 3 3 4 4 3 2 4 8 8 10 10 9 9 9 8
14 12 11 9 8 6 5 3 3 4 3 3 3 4 3 3 3 2 1 1 2 2 0 2 1 2 1 2 5 5 5 5 5 3 1 11 9 9 9 9 10 9 8
14 13 13 11 10 6 5 5 4 4 4 3 3 4 4 4 3 2 2 1 1 2 1 3 1 3 2 2 3 4 5 5 5 5 3 4 9 10 10 10 9 8 9
14 14 13 12 9 8 7 5 4 4 5 4 5 6 6 4 4 5 3 1 3 2 2 3 1 3 3 2 2 4 5 5 4 5 3 2 5 10 10 10 10 10 10
14 14 13 11 11 9 7 5 4 4 4 5 5 5 6 6 6 4 2 2 2 0 0 2 2 1 3 1 1 2 3 4 5 4 3 2 3 3 7 11 10 10 10
15 15 13 11 10 9 8 5 5 6 5 5 4 5 7 6 5 4 3 3 3 1 2 1 0 1 2 2 2 1 3 3 5 4 5 4 5 4 3 7 9 9 10
15 14 14 11 9 9 6 4 2 3 2 3 4 4 6 5 6 4 3 3 3 2 3 1 0 2 2 3 3 3 3 1 2 3 4 4 4 5 5 5 3 4 9
16 14 15 14 12 9 4 5 3 4 2 1 3 6 6 5 6 5 3 2 2 2 3 3 1 2 3 2 3 4 4 3 1 2 2 3 5 4 5 4 3 2 3
17 19 15 16 15 11 9 8 4 4 3 3 3 4 6 6 6 5 5 4 4 3 3 3 3 1 1 2 4 3 2 4 2 2 2 4 6 3 4 4 4 4 3
16 18 18 18 17 14 14 4 2 3 2 3 2 2 4 6 6 6 6 5 4 3 3 3 3 3 2 1 2 5 2 3 1 3 1 3 4 3 3 4 4 5 4
18 17 18 17 16 15 13 11 11 8 8 5 4 3 4 6 6 6 6 6 5 4 4 4 3 2 3 2 1 1 2 4 3 2 2 2 3 4 5 3 4 5 5
20 17 17 18 17 17 13 14 10 6 4 2 3 5 4 5 6 7 6 6 6 4 4 5 4 3 2 3 3 1 2 2 2 3 2 3 2 4 4 5 4 4 5
21 18 18 18 18 17 15 15 14 13 7 5 4 4 4 4 5 6 6 6 6 5 5 5 5 5 5 3 2 3 3 3 3 3 2 3 3 4 4 4 5 5 4
Wind_Direction
201 168 132 123 123 122 120 123 116 119 117 119 118 121 124 125 129 134 131 126 113 109 104 101 100 104 112 114 110 111 111 110 111 111 105 105 109 104 99 100 94 94 94
136 151 141 129 127 124 122 116 120 116 117 118 115 117 122 124 125 129 126 119 117 112 111 107 100 97 104 103 109 113 114 117 118 113 96 109 119 103 103 99 98 97 95
134 149 143 134 130 127 124 122 119 121 117 117 122 120 121 123 128 123 122 124 116 114 107 97 89 87 96 103 111 113 111 105 102 97 92 75 97 111 107 104 100 95 98
136 147 142 136 134 129 129 124 121 122 116 119 112 118 117 116 117 123 121 116 114 112 106 99 95 94 90 97 103 114 124 117 108 104 73 71 100 104 105 105 104 104 104
130 137 148 140 137 134 130 128 119 117 119 121 126 122 121 126 119 121 121 116 112 114 115 106 101 97 97 102 105 99 130 120 117 103 88 78 83 107 108 111 108 106 107
133 148 147 146 141 139 134 127 125 123 124 125 134 122 117 118 119 127 125 123 122 114 99 96 97 97 100 104 102 98 108 111 106 93 85 90 71 117 115 118 117 110 107
142 142 148 149 146 140 140 134 136 131 132 135 121 122 127 126 128 130 126 126 129 121 108 92 92 95 107 114 107 103 119 96 91 102 99 98 100 117 116 113 109 113 116
134 139 152 150 148 145 143 140 141 139 135 135 126 119 127 130 133 131 131 132 128 120 116 107 93 94 106 120 121 119 122 138 119 95 113 119 125 120 118 115 117 122 119
133 136 142 148 152 153 150 144 146 147 142 140 132 124 122 123 134 137 138 136 127 122 122 110 92 91 103 105 94 96 135 135 125 124 131 122 140 127 121 121 124 129 125
130 135 136 142 136 146 160 153 159 153 151 150 146 147 150 148 145 141 134 139 128 127 126 109 94 101 102 112 108 112 129 130 110 114 115 160 131 132 130 127 127 128 128
139 137 130 136 144 158 157 167 166 155 158 159 154 146 120 121 79 113 180 177 136 130 126 116 114 103 119 117 114 105 102 128 120 117 122 144 156 138 139 135 130 126 128
163 160 147 154 162 164 169 167 154 159 138 129 122 141 161 166 213 189 209 216 169 145 133 104 87 100 97 95 98 92 95 120 126 133 140 158 140 142 141 139 141 134 135
166 168 165 170 172 181 176 158 167 137 149 157 185 190 183 126 13 48 301 46 49 59 60 56 53 35 70 113 117 118 128 140 134 143 169 170 154 150 144 141 138 138 135
168 174 175 178 178 203 164 179 174 155 177 206 196 206 185 182 153 84 320 259 125 85 161 116 83 156 315 249 205 141 156 133 144 141 177 170 158 157 154 150 146 146 147
171 176 182 182 185 199 185 193 182 180 185 190 195 206 188 193 181 129 259 305 305 299 201 83 327 47 254 199 226 159 179 142 150 159 183 182 163 164 166 167 165 161 161
176 181 181 190 192 178 187 197 200 178 187 184 198 213 221 215 181 178 199 174 278 276 352 84 346 112 13 67 121 170 168 145 151 153 193 184 173 174 175 182 182 177 180
181 180 185 188 188 185 190 197 197 203 188 188 195 195 214 220 200 177 188 165 235 267 13 116 40 89 78 358 85 174 146 148 158 167 183 193 180 185 192 192 194 200 200
181 182 184 192 186 194 192 190 198 205 211 193 195 184 204 216 210 191 165 186 219 290 31 106 113 36 107 162 172 118 142 141 155 168 164 176 186 196 205 207 204 209 209
180 181 185 191 186 192 201 192 200 203 206 198 181 187 194 199 201 187 177 175 147 32 79 140 327 115 121 100 71 88 138 164 165 164 168 194 207 207 207 236 211 217 224
183 182 186 187 186 185 191 183 179 173 191 175 192 180 177 186 184 177 196 176 125 86 105 38 354 20 104 135 69 41 65 222 149 163 191 193 214 209 206 221 235 225 226
186 183 190 189 190 176 172 182 180 184 177 200 201 167 182 185 177 181 186 161 140 120 157 159 124 63 37 74 94 23 37 32 292 246 222 204 218 216 215 207 215 219 258
184 193 190 194 191 188 192 200 175 166 170 161 188 186 189 185 181 183 170 198 174 133 139 167 124 100 59 105 117 81 35 339 329 248 211 220 233 214 215 218 211 216 236
184 189 194 194 193 194 196 148 90 85 48 137 147 206 201 186 179 190 181 189 196 169 189 182 153 148 145 352 124 135 91 214 336 330 257 207 235 234 230 223 227 223 220
190 188 190 191 192 193 187 194 197 202 201 199 163 171 198 185 187 194 188 195 200 188 195 172 170 160 124 157 350 135 102 142 164 331 335 272 217 225 230 235 223 235 214
186 188 189 189 193 193 190 197 195 199 203 152 144 162 194 199 196 199 192 196 205 191 192 184 160 170 162 155 178 147 81 70 104 129 211 286 316 236 224 222 227 222 217
191 185 186 187 194 194 191 196 195 193 167 157 183 179 192 205 204 208 195 196 203 190 187 197 181 178 198 192 184 179 168 170 197 145 149 234 215 261 236 225 220 223 218